www.pogodaiklimat.ru

Погода и климат >> Архив погоды >> Казахстан >> Жосалы


АРХИВ ПОГОДЫ в Жосалы

Время (UTC), дата Ветер
(напр.,м/с)
 
Видим.   Явления Облачность Т
(С)
Тd
(С)
f
(%)
Тe
(С)
Тes
(С)
Комфортность P
(гПа)
Po
(гПа)
Тmin
(С)
Tmax
(С)
R
(мм)
R24
(мм)
S
(см)
09 16.07 СВ 9
{20}
50 км ясно +38.3 +13.1 22 +38 +40 очень
жарко
1004.0 992.8
12 16.07 С 12-16
{16}
50 км ясно +38.7 +14.0 23 +39 +39 душно 1003.8 992.6
15 16.07 С 11
{16}
50 км ясно +36.5 +13.6 25 +37 +37 очень
жарко
1004.2 993.0 +40.5
18 16.07 С 10 н/о ясно +30.3 +9.0 27 +30 +30 жарко 1005.8 993.8 +40.5
21 16.07 С 11 н/о ясно +26.6 +8.4 32 +27 +27 жарко 1005.7 994.0
00 17.07 С 10 20 км ясно +24.3 +9.0 38 +25 +25 комфорт 1006.1 994.3
03 17.07 С 12-17
{17}
50 км ясно +28.0 +12.0 37 +29 +29 жарко 1007.1 995.5
06 17.07 С 12-16
{17}
50 км ясно +34.4 +14.3 30 +36 +36 душно 1006.3 995.0 +23.2
09 17.07 СВ 10
{16}
50 км ясно +38.0 +14.4 25 +39 +40 очень
душно
1005.7 994.5
12 17.07 С 11 50 км ясно +38.8 +13.7 23 +39 +39 очень
жарко
1005.1 993.9
15 17.07 С 10 50 км 4/0
[Ci fib]
+37.4 +13.1 23 +37 +37 очень
жарко
1004.9 993.7 +39.7
18 17.07 С 8 н/о 6/0
[Ci fib]
+30.5 +9.0 26 +30 +30 жарко 1006.2 994.7 +39.7
21 17.07 С 10 н/о 3/0
[Ci fib]
+28.0 +8.8 30 +28 +28 жарко 1005.1 993.5
00 18.07 СВ 11-15
{15}
20 км ясно +26.7 +9.0 33 +27 +27 жарко 1005.1 993.5
03 18.07 СВ 12-17
{17}
50 км ясно +30.0 +11.7 32 +31 +31 жарко 1006.2 994.7
06 18.07 СВ 4
{17}
50 км ясно +37.0 +16.9 31 +40 +50 очень
душно
1006.2 995.0 +26.4
09 18.07 С 8 50 км ясно +40.1 +16.1 25 +42 +45 опасность
перегрева
1005.2 994.8
12 18.07 СВ 11 50 км ясно +41.2 +14.3 21 +42 +42 опасность
перегрева
1004.8 993.7
15 18.07 СВ 11
{16}
50 км 3/0
[Ci sp]
+39.1 +10.3 18 +38 +38 очень
жарко
1005.3 994.1 +42.5
18 18.07 С 7 н/о ясно +32.9 +5.1 18 +31 +31 жарко 1006.4 994.9 +42.5
21 18.07 СВ 6 н/о 3/0
[Ac cast]
+29.6 +4.1 20 +28 +28 жарко 1005.9 994.4
00 19.07 СВ 6 20 км 3/0
[Ac cast]
+26.5 +5.0 25 +26 +26 жарко 1007.0 995.3
03 19.07 В 9 50 км 3/0
[Ci fib]
+30.3 +5.5 21 +29 +29 жарко 1007.4 995.9
06 19.07 В 4 50 км ясно +35.9 +10.5 21 +35 +45 очень
жарко
1007.7 996.4 +26.1
09 19.07 СВ 8 50 км ясно +40.6 +5.3 12 +38 +41 очень
жарко
1006.8 995.6
12 19.07 СВ 5 50 км ясно +41.4 +6.5 12 +39 +42 очень
жарко
1006.1 995.0
15 19.07 СВ 9 50 км 3/0
[Ci sp]
+39.0 +5.9 13 +36 +36 очень
жарко
1006.5 995.3 +44.0
18 19.07 СВ 4 н/о 3/0
[Ci sp]
+31.4 +3.6 17 +29 +29 жарко 1007.3 995.8 +44.0
21 19.07 В 3 н/о 8/0
[Ac cast Ci]
+30.3 +1.9 16 +28 +28 жарко 1007.3 995.8
00 20.07 В 4 20 км гроза без осадков 9/6 600 м
[Cb cap Ac cast]
+27.0 +4.6 24 +26 +26 жарко 1008.3 996.6
03 20.07 В 7 50 км {гроза, ливн. осадки} 6/3 600 м
[Cb calv Ac cast Ci]
+28.7 +7.1 26 +28 +29 жарко 1009.3 997.6
06 20.07 ЮВ 8 50 км {гроза, ливн. осадки} 8/3 600 м
[Cb calv Ac cast Ci sp]
+35.6 +8.2 19 +34 +35 очень
жарко
1008.6 997.3 +25.0 0.0
09 20.07 ЮВ 5 50 км в посл. час ливневой дождь 8/8 600 м
[Cb calv]
+36.8 +11.3 22 +36 +38 очень
жарко
1007.2 996.0
12 20.07 Ю 3 50 км {ливн. осадки} 8/5 600 м
[Cb calv Ac cuf Ci sp]
+38.0 +11.3 20 +37 +39 очень
жарко
1006.9 995.7
15 20.07 ЮВ 5 50 км {ливн. осадки} 8/5 600 м
[Cb calv Ac cuf Ci sp]
+35.5 +12.0 24 +35 +35 очень
жарко
1005.7 994.4 +38.9
18 20.07 Ю 3 н/о {ливн. осадки} 6/3 600 м
[Cb calv Ac cuf]
+30.6 +11.1 30 +31 +31 жарко 1006.3 994.8 +38.9 0.0
21 20.07 ЮВ 2 н/о 8/4 600 м
[Cb calv Ac cast]
+29.4 +11.4 33 +30 +30 жарко 1005.6 994.1
00 21.07 ЮЗ 3 20 км 4/0
[Ac cast]
+26.9 +10.2 35 +27 +27 жарко 1005.2 993.6
03 21.07 СЗ 12-16
{16}
50 км ясно +30.7 +7.1 23 +29 +29 жарко 1006.0 994.5
06 21.07 СЗ 15-20
{22}
4000 м пыльная буря {метель} ясно +35.9 +9.7 20 +35 +35 очень
жарко
1006.7 995.4 +24.2
09 21.07 З 15-20
{20}
50 км пыльный позёмок ясно +38.9 +10.5 18 +38 +38 очень
жарко
1006.7 995.5
12 21.07 СЗ 18-24
{24}
20 км пыльный позёмок ясно +38.0 +8.4 17 +36 +36 очень
жарко
1006.5 995.3
15 21.07 СЗ 15-19
{24}
50 км {метель} ясно +36.4 +8.9 19 +35 +35 очень
жарко
1006.7 995.4 +40.5
18 21.07 СЗ 9
{19}
н/о {метель} ясно +31.0 +6.8 22 +30 +30 жарко 1007.8 996.3 +40.5
21 21.07 С 5 н/о ясно +27.3 +9.2 32 +27 +27 жарко 1008.7 997.1
00 22.07 С 6 20 км 3/0
[Ci sp]
+23.5 +9.5 41 +24 +24 комфорт 1009.9 998.1
03 22.07 С 9 50 км ясно +26.6 +11.1 38 +28 +28 жарко 1011.3 999.6
06 22.07 СВ 8 50 км ясно +34.7 +13.1 27 +35 +38 очень
жарко
1011.4 1000.0 +22.2
09 22.07 С 6 50 км ясно +35.0 +12.9 26 +35 +42 очень
жарко
1010.4 999.0
12 22.07 С 9 50 км ясно +35.5 +12.0 24 +35 +36 очень
жарко
1009.7 998.3
15 22.07 С 6 50 км ясно +34.4 +9.3 22 +33 +33 жарко 1009.3 997.9 +37.2
18 22.07 СВ 4 н/о ясно +28.3 +7.8 27 +28 +28 жарко 1009.9 998.2 +37.2
21 22.07 СВ 3 н/о ясно +25.0 +7.4 32 +25 +25 комфорт 1009.5 997.7
00 23.07 СВ 1 20 км ясно +23.1 +8.8 40 +24 +24 комфорт 1009.4 997.6
03 23.07 штиль 0 50 км 3/0
[Ac cast]
+26.4 +12.9 43 +28 +33 жарко 1010.3 998.6
06 23.07 штиль 0 50 км ясно +33.9 +16.0 34 +36 +57 опасность
солнечного
удара
1009.4 998.0 +21.4

 

Местоположение метеостанции Жосалы (Кызылординская область, Казахстан): широта 45.50 долгота 64.08 высота над уровнем моря 103 м.

В архиве по умолчанию представлена погода в Жосалы за последнюю неделю. Архивные данные за месяц целиком и за предыдущие месяцы, начиная с января 2011 года, Вы можете получить, выбрав интересующий диапазон дат из раскрывающегося списка и нажав кнопку "Ввод!".


*Определитесь, кто Вы:
робот инопланетянин человек

Внимание! Время в таблицах - всемирное. Для получения местного времени необходимо прибавить поправку, которая равна 6 ч.

Смотрите также архив погоды в соседних городах и на ближайших метеорологических станциях:

Погода в Акае (Кызылординская область, Казахстан) (64 км)
Погода в Жалагаше (Кызылординская область, Казахстан) (66 км)
Погода в Караке (Кызылординская область, Казахстан) (99 км)
Погода в Кызылорде (Кызылординская область, Казахстан) (133 км)
Погода в Тасбугете (Кызылординская область, Казахстан) (140 км)
Погода в Казалинске (Кызылординская область, Казахстан) (155 км)
Погода в Ширик-Рабате (Кызылординская область, Казахстан) (184 км)
Погода в Каукее (Кызылординская область, Казахстан) (189 км)
Погода в Акбакае (Жамбылская область, Казахстан) (228 км)
Погода в Кульжамбае (Карагандинская область, Казахстан) (232 км)

Пояснения к столбцам:

Ветер - указаны скорость ветра в м/с - средняя за 10 мин, порывы в срок и между сроками (в фигурных скобках) и направление, откуда дует ветер: С - северный, СВ - северо-восточный, В - восточный, ЮВ - юго-восточный, Ю - южный, ЮЗ - юго-западный, З - западный, СЗ - северо-западный.
Видимость - горизонтальная дальность видимости в метрах или километрах. При видимости от 1 до 10 км при отсутствии осадков обычно наблюдается дымка, при ухудшении видимости до 1 км и менее - туман. В сухую погоду видимость может ухудшаться дымом, пылью или мглою.
Явления - указаны атмосферные явления, наблюдавшиеся в срок или в последний час перед сроком; фигурными скобками обозначены явления, наблюдавшиеся между сроками (за 1-3 часа до срока); квадратными скобками обозначены град или гололедные отложения с указанием их диаметра в мм.
Облачность - указаны через наклонную черту общая и нижняя облачность в баллах и высота нижней границы облаков в метрах; квадратными скобками обозначены формы облаков: Ci - перистые, Cs - перисто-слоистые, Cc - перисто-кучевые, Ac - высококучевые, As - высокослоистые, Sc - слоисто-кучевые, Ns - слоисто-дождевые, Cu - кучевые, Cb - кучево-дождевые. Подробнее классификацию облаков см. в Атласе облаков (PDF).
T - Температура воздуха - температура, измеренная на высоте 2 м над землей.
Td - Температура точки росы - температура, при понижении до которой содержащийся в воздухе водяной пар достигнет насыщения.
f - Относительная влажность воздуха - влажноcть воздуха, измеренная на высоте 2 м над землей.
Te - Эффективная температура - температура, которую ощущает одетый по сезону человек в тени. Характеристика душности погоды. При расчете учитывается влияние влажности воздуха и скорости ветра на теплоощущения человека.
Tes - Эффективная температура на солнце - температура, которую ощущает человек, с поправкой на солнечный нагрев. Характеристика знойности погоды. Зависит от высоты солнца над горизонтом, облачности и скорости ветра. Ночью, в пасмурную погоду, а также при ветре 12 м/с и более поправка равна нулю.
P - Атмосферное давление - приведенное к уровню моря атмосферное давление.
Po - Атмосферное давление - измеренное на уровне метеостанции атмосферное давление.
Tmin - Минимальная температура - минимум температуры воздуха на высоте 2 м над землей.
Tmax - Максимальная температура - максимум температуры воздуха на высоте 2 м над землей.
R - Количество осадков - Количество выпавших осадков за период времени, мм. При наведении курсора мыши на число - период времени, за который выпало указанное количество осадков.
R24 - Количество осадков - Количество выпавших осадков за 24 часа, мм.
S - Снежный покров - Высота снежного покрова, см. При наведении курсора мыши на число - состояние снежного покрова и степень покрытия местности в баллах.